TimePST,TemperatureF,Dew PointF,Humidity,Sea Level PressureIn,VisibilityMPH,Wind Direction,Wind SpeedMPH,Gust SpeedMPH,PrecipitationIn,Events,Conditions,WindDirDegrees,DateUTC
12:53 AM,53.1,46.9,80,30.17,10.0,SE,4.6,-,N/A,,Clear,130,2012-11-20 08:53:00
1:53 AM,54.0,48.0,80,30.16,10.0,SE,5.8,-,N/A,,Clear,140,2012-11-20 09:53:00
2:53 AM,54.0,48.0,80,30.15,10.0,SSE,5.8,-,N/A,,Clear,150,2012-11-20 10:53:00
3:53 AM,54.0,46.9,77,30.14,10.0,SE,6.9,-,N/A,,Scattered Clouds,130,2012-11-20 11:53:00
4:53 AM,54.0,46.9,77,30.14,10.0,SE,6.9,-,N/A,,Overcast,140,2012-11-20 12:53:00
5:53 AM,55.0,46.9,74,30.14,10.0,SSE,6.9,-,N/A,,Overcast,150,2012-11-20 13:53:00
6:53 AM,55.9,46.0,69,30.15,10.0,SSE,11.5,17.3,N/A,,Overcast,150,2012-11-20 14:53:00
7:53 AM,55.0,46.0,72,30.14,10.0,SE,8.1,-,N/A,,Mostly Cloudy,140,2012-11-20 15:53:00
8:53 AM,57.0,46.9,69,30.14,10.0,SE,11.5,-,N/A,,Overcast,140,2012-11-20 16:53:00
9:53 AM,59.0,48.0,67,30.14,10.0,SSE,9.2,18.4,N/A,,Overcast,150,2012-11-20 17:53:00
10:53 AM,62.1,48.9,62,30.12,10.0,SSE,11.5,20.7,0.00,,Overcast,160,2012-11-20 18:53:00
11:53 AM,64.9,51.1,61,30.09,10.0,SSE,11.5,19.6,N/A,,Partly Cloudy,150,2012-11-20 19:53:00
12:53 PM,66.9,52.0,59,30.07,10.0,SSE,11.5,18.4,N/A,,Clear,160,2012-11-20 20:53:00
1:53 PM,68.0,51.1,55,30.05,10.0,SSE,13.8,19.6,N/A,,Overcast,150,2012-11-20 21:53:00
2:53 PM,66.9,51.1,57,30.04,10.0,SSE,11.5,-,N/A,,Overcast,160,2012-11-20 22:53:00
3:53 PM,66.9,51.1,57,30.04,10.0,SSW,11.5,-,N/A,,Overcast,200,2012-11-20 23:53:00
4:53 PM,64.9,51.1,61,30.03,10.0,SSW,11.5,23.0,0.00,,Overcast,200,2012-11-21 00:53:00
5:53 PM,64.0,51.1,63,30.04,10.0,South,5.8,-,N/A,,Overcast,170,2012-11-21 01:53:00
6:53 PM,64.0,51.1,63,30.03,10.0,SSE,10.4,-,N/A,,Mostly Cloudy,160,2012-11-21 02:53:00
7:53 PM,63.0,52.0,67,30.04,10.0,SSE,10.4,-,0.00,Rain,Light Rain,160,2012-11-21 03:53:00
8:53 PM,62.1,52.0,70,30.03,10.0,SSE,8.1,-,0.00,,Overcast,150,2012-11-21 04:53:00
9:53 PM,60.1,52.0,75,30.04,10.0,SSE,9.2,-,0.00,Rain,Light Rain,150,2012-11-21 05:53:00
10:53 PM,59.0,52.0,78,30.07,7.0,Calm,Calm,-,0.00,Rain,Light Rain,0,2012-11-21 06:53:00
11:32 PM,57.2,55.4,94,30.08,6.0,Calm,Calm,-,0.01,Rain,Light Rain,0,2012-11-21 07:32:00
11:42 PM,57.2,55.4,94,30.08,5.0,Calm,Calm,-,0.01,Rain,Light Rain,0,2012-11-21 07:42:00
11:53 PM,57.9,55.0,90,30.08,4.0,Calm,Calm,-,0.02,Rain,Light Rain,0,2012-11-21 07:53:00